Content
SEND FEEDBACK

Daily
Averages
Monthly
Summary
Australia

HOBART, TASMANIA


Home > Oceania > Australia > Tasmania
Elevation: 9 feet     Latitude: 42 50S     Longitude: 147 33E

WEATHER
 
SELECT A DAY
Number of Records: 309,294;   Date Range: 7/1/96 - 12/16/14
 
SHARE

PRINT THIS DATA

[ ← Previous Day ]
WEATHER ALMANAC - JANUARY 31, 2013
[ Next Day → ]
[ °C ]   °F
Weather ElementAverageHighLow
Temperature60 °F67 °F (2:00 pm)51.8 °F (11:30 pm)
Dewpoint52.7 °F57.2 °F (4:00 am)48 °F (2:00 pm)
Humidity76.6 %94 % (5:00 pm)39 % (2:00 pm)
Barometer29.75 in29.82 in (11:00 pm)29.71 in (2:00 pm)
Wind Speed9.8 mph19.6 mph (3:30 pm)
Weather ElementAverage
Visibility6.6 mi
Wind DirectionSW (221.6 °)

Weather ElementTotal
Precipitation---
Heating Degree Days5.6 (Base 65)
Growing Degree Days9.4 (Base 50)
Averaged from 68 records on January 31, 2013
WEATHER CONDITIONS BREAKOUT
WIND DIRECTION BREAKOUT
WEATHER BY HOUR - JANUARY 31, 2013
[ °C ]   °F
Local TimeTemperatureDewpointHumidityBarometerVisibilityWind DirectionWind SpeedGust SpeedPrecipitationEventsConditions
12:00 AM66.2 °F53.6 °F64 %29.74 in6.2 miNorth (360°)11.5 mphMostly Cloudy
12:30 AM66.2 °F53.6 °F64 %29.74 in6.2 miNorth (10°)10.4 mphMostly Cloudy
1:00 AM66.2 °F53.6 °F64 %29.74 in6.2 miNorth (360°)11.5 mphMostly Cloudy
1:30 AM64.4 °F53.6 °F68 %29.74 in6.2 miNorth (360°)10.4 mphMostly Cloudy
2:00 AM64.0 °F55.0 °F64 %29.75 inNorth (350°)8.1 mph
2:00 AM64.4 °F55.4 °F73 %29.74 in6.2 miNorth (350°)8.1 mphMostly Cloudy
2:30 AM64.4 °F55.4 °F73 %29.74 in6.2 miNorth (10°)11.5 mphMostly Cloudy
3:00 AM64.4 °F53.6 °F68 %29.74 in6.2 miNorth (10°)9.2 mphMostly Cloudy
3:00 AM65.0 °F54.0 °F60 %29.74 in19.0 miNorth (10°)9.2 mphOvercast
3:30 AM64.4 °F55.4 °F73 %29.74 in6.2 miNorth (350°)10.4 mphMostly Cloudy
4:00 AM62.6 °F57.2 °F82 %29.74 in6.2 miNNW (340°)10.4 mphRainLight Rain Showers
4:30 AM62.6 °F57.2 °F82 %29.74 in6.2 miNorth (350°)4.6 mphRainLight Rain Showers
5:00 AM61.0 °F57.0 °F81 %29.75 inNorth (10°)9.2 mph
5:00 AM60.8 °F57.2 °F88 %29.74 in6.2 miNorth (10°)9.2 mphMostly Cloudy
5:30 AM60.8 °F57.2 °F88 %29.74 in6.2 miNorth (10°)8.1 mphRainLight Rain Showers
6:00 AM60.0 °F55.0 °F78 %29.75 in19.0 miNorth5.8 mphRainLight Rain Showers
6:00 AM60.8 °F55.4 °F82 %29.74 in6.2 miNorth (360°)5.8 mphMostly Cloudy
6:30 AM60.8 °F55.4 °F82 %29.74 in6.2 miNNW (330°)5.8 mphMostly Cloudy
7:00 AM60.8 °F55.4 °F82 %29.74 in6.2 miNorth (350°)6.9 mphRainLight Rain Showers
7:30 AM60.8 °F53.6 °F77 %29.77 in6.2 miNNW (340°)6.9 mphRainLight Rain Showers
8:00 AM61.0 °F54.0 °F72 %29.77 inNorth (350°)6.9 mph
8:00 AM60.8 °F53.6 °F77 %29.77 in6.2 miNorth (350°)6.9 mphRainLight Rain Showers
8:30 AM60.8 °F51.8 °F72 %29.77 in6.2 miNorth (350°)8.1 mphMostly Cloudy
9:00 AM61.0 °F53.0 °F68 %29.77 in16.0 miNorth (350°)8.1 mphMostly Cloudy
9:00 AM60.8 °F53.6 °F77 %29.77 in6.2 miNorth (350°)8.1 mphMostly Cloudy
9:30 AM62.6 °F53.6 °F72 %29.77 in6.2 miNNW (340°)8.1 mphMostly Cloudy
10:00 AM64.4 °F51.8 °F64 %29.74 in6.2 miNNE (20°)8.1 mphMostly Cloudy
10:30 AM66.2 °F51.8 °F60 %29.74 in6.2 miNNE (30°)8.1 mphMostly Cloudy
11:00 AM66.0 °F50.0 °F46 %29.76 inNW (320°)8.1 mph
11:00 AM66.2 °F50.0 °F56 %29.74 in6.2 miNW (320°)8.1 mphMostly Cloudy
11:30 AM66.2 °F50.0 °F56 %29.74 in6.2 miNNW (340°)9.2 mphMostly Cloudy
12:00 PM66.0 °F51.0 °F47 %29.76 in6.0 miWest (280°)13.8 mphRainLight Rain Showers
12:00 PM66.2 °F50.0 °F56 %29.74 in5.6 miWest (280°)13.8 mphRainLight Rain Showers
12:30 PM64.4 °F53.6 °F68 %29.74 in6.2 miWNW (300°)9.2 mphRainLight Rain Showers
1:00 PM62.6 °F50.0 °F63 %29.74 in6.2 miNNW (330°)6.9 mphRainLight Rain Showers
1:30 PM66.2 °F50.0 °F56 %29.74 in6.2 miNW (320°)9.2 mphMostly Cloudy
2:00 PM67.0 °F48.0 °F39 %29.73 inNNW (330°)8.1 mph
2:00 PM66.2 °F48.2 °F52 %29.71 in6.2 miNNW (330°)8.1 mphRainLight Rain Showers
2:30 PM62.6 °F53.6 °F72 %29.71 in6.2 miSouth (180°)15.0 mphRainLight Rain Showers
3:00 PM61.0 °F55.0 °F75 %29.73 in6.0 miSouth (180°)15.0 mphRainLight Rain Showers
3:00 PM60.8 °F55.4 °F82 %29.71 in5.6 miSouth (180°)15.0 mphRainLight Rain Showers
3:30 PM60.8 °F53.6 °F77 %29.71 in6.2 miSouth (180°)19.6 mphRainLight Rain Showers
4:00 PM59.0 °F55.4 °F88 %29.71 in4.3 miSouth (170°)18.4 mphRainLight Rain Showers
4:30 PM57.2 °F53.6 °F88 %29.74 in3.1 miSouth (190°)19.6 mphRainLight Rain
5:00 PM56.0 °F54.0 °F89 %29.74 inSouth (180°)11.5 mph
5:00 PM55.4 °F53.6 °F94 %29.74 in5.0 miSouth (180°)11.5 mphRainLight Rain Showers
5:30 PM57.2 °F53.6 °F88 %29.74 in6.2 miSouth (170°)15.0 mphRainLight Rain Showers
6:00 PM55.0 °F52.0 °F86 %29.75 in9.0 miSSE (160°)13.8 mphRainLight Rain Showers
6:00 PM55.4 °F51.8 °F88 %29.74 in6.2 miSSE (160°)13.8 mphRainLight Rain Showers
6:30 PM55.4 °F51.8 °F88 %29.74 in6.2 miSouth (180°)10.4 mphRainLight Rain Showers
7:00 PM55.4 °F51.8 °F88 %29.77 in5.6 miSouth (170°)10.4 mphRainLight Rain Showers
7:30 PM55.4 °F51.8 °F88 %29.77 in6.2 miSouth (170°)11.5 mphRainLight Rain Showers
8:00 PM54.0 °F51.0 °F85 %29.76 inSouth (180°)9.2 mph
8:00 PM55.4 °F50.0 °F82 %29.74 in6.2 miSouth (180°)9.2 mphRainLight Rain
8:12 PM55.4 °F51.8 °F88 %29.77 in6.2 miSSW (200°)8.1 mphRainLight Rain
8:30 PM53.6 °F51.8 °F94 %29.74 in5.0 miSSW (210°)10.4 mphRainRain Showers
8:33 PM53.6 °F51.8 °F94 %29.74 in3.7 miSSW (210°)10.4 mphRainRain Showers
8:46 PM53.6 °F51.8 °F94 %29.74 in5.0 miSouth (170°)11.5 mphRainLight Rain Showers
9:00 PM54.0 °F51.0 °F88 %29.76 in6.0 miSouth (180°)10.4 mphRainLight Rain
9:00 PM53.6 °F51.8 °F94 %29.74 in5.6 miSouth (180°)10.4 mphRainRain
9:30 PM53.6 °F51.8 °F94 %29.77 in5.6 miSouth (180°)10.4 mphRainLight Rain
10:00 PM53.6 °F50.0 °F88 %29.77 in5.6 miSSE (160°)6.9 mphRainLight Rain
10:08 PM53.6 °F50.0 °F88 %29.80 in5.6 miSE (130°)5.8 mphRainLight Rain
10:30 PM53.6 °F50.0 °F88 %29.80 in6.2 miSSW (210°)5.8 mphRainLight Rain
10:44 PM53.6 °F50.0 °F88 %29.80 in6.2 miSSW (200°)5.8 mphRainLight Rain
11:00 PM53.0 °F50.0 °F84 %29.82 inSW (220°)6.9 mph
11:00 PM53.6 °F50.0 °F88 %29.80 in6.2 miSW (220°)6.9 mphRainLight Rain
11:30 PM51.8 °F48.2 °F88 %29.80 in6.2 miSW (230°)6.9 mphRainLight Rain
Hourly data recorded from YMHB, located miles away from Hobart, Tasmania







STORIES FROM OUR PARTNERS